This is the latest recevied weather packets stored in our database for station/object WX4SGA. If no packets are shown the sender has not sent any weather packets the latest 10 day(s).
| Time | Temp. | Humidity | Pressure | Rain* | Wind** | Luminosity | Snow |
|---|---|---|---|---|---|---|---|
| 1788478343 | 26.67° C | 96% | 1015.6 hPa | 0 mm | - | 12 W/m² | - |
| 1788478041 | 26.67° C | 96% | 1015.6 hPa | 0 mm | - | 16 W/m² | - |
| 1788477738 | 26.67° C | 96% | 1015.6 hPa | 0 mm | - | 19 W/m² | - |
| 1788477436 | 26.67° C | 96% | 1015.6 hPa | 0 mm | - | 23 W/m² | - |
| 1788477132 | 26.67° C | 95% | 1015.2 hPa | 0 mm | - | 26 W/m² | - |
| 1788476828 | 26.67° C | 95% | 1015.6 hPa | 0 mm | - | 27 W/m² | - |
| 1788476528 | 26.67° C | 95% | 1015.2 hPa | 0 mm | - | 26 W/m² | - |
| 1788476224 | 26.67° C | 94% | 1015.6 hPa | 0 mm | - | 18 W/m² | - |
| 1788475920 | 26.67° C | 93% | 1015.6 hPa | 0 mm | - | 16 W/m² | - |
| 1788475616 | 26.67° C | 93% | 1015.6 hPa | 0 mm | - | 24 W/m² | - |
| 1788475312 | 27.22° C | 92% | 1015.2 hPa | 0 mm | - | 27 W/m² | - |
| 1788475007 | 27.78° C | 88% | 1015.2 hPa | 0 mm | - | 28 W/m² | - |
| 1788474706 | 28.33° C | 86% | 1015.2 hPa | 0 mm | - | 31 W/m² | - |
| 1788474406 | 28.33° C | 85% | 1014.9 hPa | 0 mm | - | 31 W/m² | - |
| 1788474104 | 28.33° C | 84% | 1014.9 hPa | 0 mm | - | 29 W/m² | - |
| 1788473800 | 28.89° C | 83% | 1014.9 hPa | 0 mm | - | 38 W/m² | - |
| 1788473498 | 28.89° C | 81% | 1014.9 hPa | 0 mm | - | 54 W/m² | - |
| 1788473197 | 29.44° C | 79% | 1014.9 hPa | 0 mm | - | 70 W/m² | - |
| 1788472892 | 29.44° C | 77% | 1014.9 hPa | 0 mm | - | 76 W/m² | - |
| 1788472591 | 30° C | 76% | 1014.9 hPa | 0 mm | - | 64 W/m² | - |
| 1788472286 | 30° C | 76% | 1014.9 hPa | 0 mm | - | 125 W/m² | - |
| 1788471985 | 30° C | 76% | 1014.9 hPa | 0 mm | - | 125 W/m² | - |
| 1788471681 | 30° C | 75% | 1014.9 hPa | 0 mm | - | 108 W/m² | - |
| 1788471375 | 29.44° C | 77% | 1014.6 hPa | 0 mm | - | 99 W/m² | - |
| 1788471071 | 29.44° C | 77% | 1014.6 hPa | 0 mm | - | 115 W/m² | - |
* Rain latest hour (hover to see other rain measurements)
** Current wind speed in m/s (hover to see current wind gust speed)